World > North America > United States > Iowa

Hourly Gaza, IA Regional Weather

Feedback E-mail the Weather

Quick WX

Gaza, IA Weather Maps

°F °C°F °C
Gaza Weather Map
UTC Time: 7/3/2022, 23:24
Your Time:

Gaza, IA Regional Weather

Expires:202207040000;;633781
ASUS43 KFSD 032310
RWRFSD

WEATHER ROUNDUP FOR SE SOUTH DAKOTA/SW MINNESOTA/NW IOWA
NATIONAL WEATHER SERVICE SIOUX FALLS SD
600 PM CDT SUN JUL 03 2022

NOTE: "FAIR" INDICATES FEW OR NO CLOUDS BELOW 12,000 FEET WITH NO
SIGNIFICANT WEATHER AND OR OBSTRUCTIONS TO VISIBILITY.



IAZ001>003-012>014-020>022-031-032-NEZ013-014-SDZ071-040000-
NORTHWEST IOWA
  
CITY           SKY/WX    TMP DP  RH WIND       PRES   REMARKS
CHEROKEE       MOSUNNY   86  66  51 S14       29.98R                  
DENISON        SUNNY     84  75  74 S14G20    29.99S                  
ESTHERVILLE    MOSUNNY   84  66  54 S14       29.98F                  
LE MARS        SUNNY    133 N/A N/A S15       29.95R                  
MAURICE        FAIR      86  70  58 S16       29.94F                  
SHELDON        SUNNY     88  63  42 S16       29.95S                  
SIOUX CITY     PTSUNNY   87  68  52 S18       29.96R                  
SPENCER        MOSUNNY   89  65  44 S13       29.99R                  
STORM LAKE     SUNNY     84  68  58 S15       30.00R                  
$$
 
ABBREVIATIONS USED IN REMARKS
   TC - TEMPERATURE IN CELSIUS
  WCI - WIND CHILL INDEX
   HX - HEAT INDEX
  VSB - VISIBILITY

  

SKY/WX - Weather  TMP - Temperature  DP - Dew Point  RH - Humidity
WIND - Wind Direction/Speed PRES - Barometric Pressure VSB - Visibility
WCI - Wind Chill Index E13G22 Wind - East Wind 13 mph/Gusts of 22 mph

Trending Headlines

Gaza Radar Loop



Gaza Quick Facts


National Two Day Weather Forecast


E-mail the Gaza Weather Forecast

Voice your opinion or tell us about page issues...